Location: Northern Prairie Star Party
(53.2167°N, 112.5333°W)
Time: 19:23:00
(UTC-06:00)

Daily predictions for brighter satellites

Satellite Brightness Start Highest point End
(mag) Time Altitude Azimuth Time Altitude Azimuth Time Altitude Azimuth
NOSS 3-1 (C) 4.3 22:21:33 10° NW 22:28:40 67° NE 22:36:43 10° ESE
ERS-1 Rocket 3.7 22:24:18 10° S 22:29:12 53° W 22:34:09 10° NNW
Cosmos 2082 Rocket 2.5 22:24:15 10° S 22:29:39 47° ESE 22:35:02 10° NE
Meteor 1-29 4.4 22:29:57 10° N 22:33:09 41° WNW 22:36:20 10° SW
Cosmos 1656 4.3 22:28:14 10° NW 22:33:30 51° WSW 22:38:48 10° S
Cosmos 1697 Rocket 3.1 22:33:55 10° NW 22:39:28 63° WSW 22:45:00 10° SSE
Iridium 43 3.8 22:39:04 10° N 22:41:17 61° W 22:43:34 10° S
Tiangong 2 3.4 22:43:55 10° SSW 22:45:05 12° S 22:46:15 10° S
SPOT 1/Viking Rocket 3.6 22:40:38 10° SSE 22:45:48 85° WSW 22:51:00 10° NNW
SL-8 Rocket 4.2 22:39:56 10° NNW 22:46:13 78° W 22:52:30 10° S
Cosmos 1758 4.5 22:43:31 10° N 22:47:07 30° ENE 22:50:40 10° SE
Meteor 1-22 Rocket 4.1 22:42:41 10° NNW 22:48:02 86° ENE 22:53:28 10° SSE
SL-16 R/B 2.8 22:46:02 10° NNW 22:51:35 50° NE 22:57:06 10° SE
Cosmos 1892 Rocket 4.1 22:47:14 10° SSW 22:51:37 63° WNW 22:55:59 10° N
Cosmos 2360 4.3 22:46:47 10° NNW 22:52:34 88° WSW 22:58:15 10° SSE
Cosmos 2366 rocket 4.0 22:47:35 10° N 22:53:48 88° WSW 22:59:57 10° S
Cosmos 1602 Rocket 3.7 22:52:06 10° S 22:56:20 57° E 23:00:34 10° NNE
USA 229 DEB 4.1 22:49:41 10° NW 22:56:43 65° SW 23:03:48 10° SSE
USA 229 4.0 22:49:47 10° NW 22:56:49 65° SW 23:03:54 10° SSE
Cosmos 1544 3.5 22:54:00 10° N 22:57:33 49° ENE 23:00:49 12° SSE
Cosmos 1271 Rocket 2.8 22:56:08 10° N 23:00:02 69° ENE 23:03:47 11° SSE
Cosmos 1833 Rocket 2.7 22:54:30 10° SSW 23:00:05 70° ESE 23:05:43 10° NE
ATLAS 2AS CENTAUR R/B 4.1 22:54:25 10° NW 23:02:13 45° NNE 23:09:47 10° E
NOSS 3-1 (A) 4.2 22:56:05 10° NW 23:03:18 75° NE 23:11:28 10° SE
USA 234 3.8 22:59:41 10° E 23:06:09 65° N 23:12:36 10° WNW
Landsat 7 3.9 23:02:17 10° SSE 23:07:03 81° WSW 23:11:51 10° NNW
Cosmos 1842 3.9 23:04:03 11° SSE 23:07:32 39° E 23:11:14 10° NNE
deb Chang Zheng 4 4.4 23:04:24 10° NNE 23:08:20 33° E 23:11:50 12° SSE
Orbus 7S? 4.5 23:04:15 10° WNW 23:12:45 58° SW 23:16:10 13° SE
ATLAS CENTAUR R/B 1.0 23:11:53 10° NW 23:15:38 89° NE 23:18:44 14° SE
IGS 5A 3.5 23:16:14 12° SSE 23:20:03 87° W 23:24:15 10° NNW
CZ-4C R/B 3.9 23:18:00 14° SE 23:20:52 41° ENE 23:24:26 10° N
SL-19 R/B 4.5 23:16:49 10° NNE 23:22:01 48° E 23:26:47 11° S
CARTOSAT-1 3.6 23:18:05 12° SSE 23:22:05 80° WSW 23:26:27 10° NNW
Terra 1.9 23:17:37 12° SSE 23:22:05 82° WSW 23:26:54 10° NNW
Cosmos 2360 Rocket 3.1 23:22:28 10° NNW 23:27:54 43° NE 23:33:17 10° ESE
Cosmos 1980 Rocket 2.9 23:23:42 10° NW 23:29:04 45° WSW 23:34:08 11° S
H-2A R/B 3.0 23:28:42 10° SSW 23:33:25 41° W 23:38:17 10° NNW
Cosmos 1934 Rocket 4.4 23:28:20 10° N 23:34:38 56° ENE 23:39:53 15° SSE
COSMOS 2428 4.2 23:33:42 10° NNW 23:38:50 32° NE 23:43:55 10° ESE
Cosmos 1953 2.3 23:35:41 10° N 23:39:48 87° ENE 23:42:56 17° S
Cosmos 1766 4.5 23:37:40 10° NNW 23:41:17 36° W 23:44:52 10° SSW
Cosmos 2322 Rocket 2.2 23:36:10 10° NNW 23:41:55 84° WSW 23:46:33 16° SSE
DELTA 2 DEB (DPAF) 4.2 23:38:29 16° SSE 23:42:03 79° ENE 23:46:33 10° NNW
SME Rocket 3.6 23:39:22 15° SE 23:42:57 48° ENE 23:46:39 10° N
ISS -3.9 23:41:00 10° W 23:44:18 67° S 23:47:35 10° E
Timation 2 Rocket 3.9 23:38:02 10° SSW 23:44:19 86° SE 23:50:26 10° NE
Cosmos 1758 Rocket 4.0 23:41:55 17° SSE 23:45:01 47° E 23:49:15 10° NNE
BREEZE-M DEB (TANK) 3.5 23:45:57 18° SE 23:46:13 18° SE 23:49:40 10° E
H-2A R/B 2.8 23:42:43 13° S 23:46:41 51° W 23:51:06 10° NNW
Spot 4 3.9 23:47:39 16° S 23:51:29 80° WSW 23:56:22 10° NNW
Cosmos 1331 Rocket 4.1 23:48:31 10° NNW 23:53:40 67° WSW 23:57:35 17° S
CZ-2C R/B 4.1 23:49:31 10° NE 23:54:00 24° E 23:57:21 14° SE
Cosmos 1269 Rocket 4.1 23:48:42 10° SSW 23:54:00 82° WNW 23:59:21 10° NNE
Lacrosse 5 2.9 23:51:06 16° S 23:54:00 26° SE 23:58:08 10° ENE
Cosmos 389 Rocket 2.8 23:51:03 10° NNW 23:54:29 58° W 23:56:50 18° S
